Location: Chuathbaluk
(61.5726°N, 159.2454°W)
Time: 04:53:59
(UTC+00:00)

Transit 4A - Pass Details

Date: 29 November 2020
Orbit: 864 x 980 km, 66.8° (Epoch: 26 January)

Event Time Altitude Azimuth Distance (km) Brightness Sun altitude
Rises 19:59:00 0° 227° (SW) 3,656 11.1 1.7°
Reaches altitude 10° 20:01:32 10° 227° (SW) 2,721 10.5 1.9°
Maximum altitude 20:07:56 82° 141° (SE) 998 8.3 2.3°
Drops below altitude 10° 20:14:23 10° 55° (NE) 2,740 10.3 2.7°
Sets 20:16:57 0° 55° (NE) 3,684 11.0 2.9°
